Location: *
(57.8420°S, 159.8600°W)
Time: 05:27:37
(UTC+00:00)

Cosmos 2333 Rocket - Pass Details

Date: 18 May 2021
Orbit: 839 x 862 km, 70.8° (Epoch: 20 June)

Event Time Altitude Azimuth Distance (km) Brightness Sun altitude
Rises 04:08:48 0° 322° (NW) 3,404 6.3 -13.0°
Reaches altitude 10° 04:11:15 10° 320° (NW) 2,475 5.5 -13.3°
Maximum altitude 04:16:57 82° 231° (SW) 870 2.3 -14.0°
Enters shadow 04:22:10 13° 144° (SE) 2,296 4.0 -14.7°
